Theta_e
282 280 278 275 276 275 276 274 273 275 275 274 277 277 279 281 280 280 282 283 283 284 286 284 282 283 283 284 283 283 283 284 283 283 283 284 284 286 287 289 290 291 292 293
282 277 276 277 276 275 275 272 275 274 274 274 276 275 279 281 281 281 282 283 283 284 284 284 283 282 283 281 282 282 283 283 282 283 284 284 284 285 286 287 288 290 291 293
278 275 277 276 274 274 273 273 272 272 274 274 273 278 276 274 277 278 280 282 283 283 283 284 284 281 281 280 281 281 281 281 282 282 283 284 284 285 285 286 288 290 291 292
275 276 275 274 273 274 273 273 271 272 273 275 273 278 277 274 276 277 281 282 283 283 283 283 282 280 280 279 280 280 281 280 281 282 282 281 280 280 283 284 286 287 288 290
274 274 273 273 272 274 272 273 272 268 270 270 270 273 279 272 275 277 280 282 281 281 280 281 281 280 279 278 278 279 279 279 280 280 281 280 279 281 282 283 283 284 287 289
274 277 276 274 274 275 274 272 271 271 271 270 269 270 280 276 278 279 280 279 279 279 279 279 280 280 279 279 278 278 277 278 279 279 279 280 279 279 280 281 281 283 285 287
274 273 274 275 272 273 270 271 274 273 270 273 267 268 277 277 276 280 280 280 279 278 278 279 279 279 279 277 277 276 276 275 277 277 278 279 279 279 279 280 280 281 282 284
272 274 271 273 271 270 267 270 272 270 272 272 266 269 279 274 273 276 276 275 276 277 278 278 278 278 277 276 276 275 275 274 275 276 277 279 279 280 280 280 281 281 282 284
273 273 271 271 270 271 268 268 267 267 260 266 273 273 276 276 276 277 277 278 277 278 278 278 277 277 277 275 274 274 273 273 274 276 277 278 279 279 279 280 281 282 283 285
273 273 271 270 271 269 269 268 269 269 268 268 273 268 277 274 277 278 277 278 279 278 277 277 277 277 276 274 274 273 274 274 275 275 277 278 278 279 279 280 280 282 284 285
274 271 271 270 269 270 266 268 264 267 267 270 269 277 278 279 281 279 280 279 277 276 277 277 276 276 275 274 273 273 273 273 273 275 275 277 278 278 279 280 281 282 283 285
274 273 270 271 264 265 266 270 271 271 267 263 264 270 277 277 276 274 277 277 277 277 276 276 275 275 274 274 273 273 273 272 274 274 275 276 278 278 278 279 280 281 282 285
275 274 271 271 266 266 267 268 267 265 268 266 268 274 273 271 273 274 274 276 278 277 276 276 275 274 274 272 272 272 273 273 273 273 274 275 277 277 277 279 280 281 284 287
280 275 274 273 276 274 268 267 265 269 268 270 267 274 277 276 276 277 278 278 277 276 275 276 276 275 274 272 271 271 273 272 273 272 273 274 275 276 277 279 279 282 286 287
277 270 273 274 275 274 272 272 268 264 269 268 273 270 275 278 278 278 277 277 277 277 277 277 277 276 274 272 273 272 272 272 271 271 273 274 275 277 277 277 279 282 285 285
275 271 270 268 273 272 270 272 272 268 269 270 271 270 277 277 278 276 276 276 276 277 277 277 277 276 275 273 273 273 271 270 271 271 272 274 274 276 277 277 278 281 282 283
272 271 268 268 270 270 269 273 273 272 269 270 267 273 276 275 276 277 277 277 276 277 277 276 277 276 275 275 274 272 271 271 271 271 272 273 274 275 276 277 277 278 280 282
271 269 270 267 269 265 275 277 276 274 272 271 272 274 276 275 276 276 277 277 277 277 276 276 277 276 276 275 274 273 273 273 272 272 272 273 273 273 275 276 276 277 281 280
273 271 268 265 266 271 276 272 272 273 275 276 273 274 275 275 274 278 278 277 278 278 278 277 278 277 276 275 274 274 273 273 273 272 272 273 273 273 274 275 276 277 279 279
270 270 269 265 263 264 274 273 275 275 271 275 275 275 275 274 274 278 278 276 276 277 277 276 276 275 275 275 274 273 273 273 273 273 273 274 274 274 273 275 277 278 279 280
266 267 265 266 265 269 276 275 275 269 273 276 276 276 276 275 278 280 276 276 276 277 277 276 275 274 275 275 274 273 273 273 273 273 274 275 275 275 275 276 278 278 279 279
267 265 265 266 264 263 274 272 270 275 277 278 278 278 277 278 279 278 278 276 276 275 275 276 275 274 275 275 274 274 273 273 273 273 273 274 275 275 276 276 277 279 279 279
267 271 269 269 271 278 275 276 277 276 276 278 277 278 275 274 276 277 277 276 275 275 276 276 275 275 275 274 274 273 274 274 273 273 273 273 274 274 275 276 277 278 279 279
273 272 270 271 275 276 277 278 279 279 278 279 278 278 277 276 277 276 276 276 274 275 275 275 274 274 274 274 274 274 274 274 273 272 272 273 273 274 274 275 277 277 278 278
272 272 271 271 274 275 277 279 279 278 277 276 279 278 278 277 275 276 275 274 275 274 274 274 274 274 274 274 274 274 274 273 272 272 272 272 273 273 273 274 276 277 279 280
273 272 270 269 273 273 274 277 278 275 277 279 280 280 280 277 276 276 274 274 274 273 273 272 272 272 273 272 273 273 273 273 272 272 272 272 272 273 272 273 273 277 278 279
Wind_Speed
1 1 3 5 5 3 5 1 3 1 1 5 8 14 12 13 14 13 12 9 7 9 6 4 3 5 7 10 11 12 12 13 11 9 10 10 10 10 10 11 16 16 15 16
3 4 4 6 4 2 1 2 2 1 2 5 7 22 17 15 14 13 12 9 8 8 9 6 5 5 7 10 11 11 12 13 11 9 10 10 11 11 12 12 15 17 18 17
3 5 6 0 1 2 2 3 1 4 8 2 11 10 4 4 6 8 9 7 9 10 9 7 4 6 7 9 9 11 11 13 12 13 10 10 11 12 12 12 12 13 16 17
5 3 1 2 2 3 3 2 2 5 6 4 5 6 4 4 5 8 8 9 9 8 7 8 7 7 8 9 9 9 11 12 12 13 12 15 13 15 12 14 14 15 18 19
4 2 2 1 3 2 3 1 2 2 1 5 5 6 1 2 7 9 8 6 5 4 6 7 7 8 9 8 8 8 9 11 12 12 13 12 15 13 13 13 19 18 17 19
4 2 3 3 4 4 5 1 1 3 0 5 4 4 4 7 6 8 4 4 3 4 6 8 9 9 10 7 7 8 9 12 12 12 14 16 17 17 15 15 15 14 13 13
3 3 2 3 2 2 2 4 3 3 3 3 3 4 8 2 4 5 5 4 3 5 7 9 9 9 9 8 8 8 10 13 12 13 15 16 17 19 20 18 14 17 13 12
4 3 1 4 3 2 2 3 4 6 3 3 4 8 2 1 3 5 6 7 9 8 7 8 8 9 9 8 8 9 10 12 13 14 15 16 17 12 13 16 15 14 14 13
3 2 4 5 2 4 5 4 3 1 2 4 1 6 10 7 8 8 9 6 7 6 6 8 8 8 8 7 7 8 10 12 13 14 13 16 16 17 15 19 17 13 17 15
3 6 1 5 3 6 3 4 3 3 5 6 4 6 4 5 9 7 8 8 5 6 7 8 8 8 7 5 7 8 9 11 13 14 13 13 16 17 17 16 18 19 17 17
4 1 4 2 7 6 5 4 1 3 3 4 5 3 6 9 9 11 8 5 6 8 9 8 7 7 6 6 6 8 9 10 11 12 14 15 15 16 17 16 16 16 16 16
3 2 5 4 3 3 3 3 6 5 6 0 4 9 3 7 5 3 5 6 7 7 8 8 8 7 6 6 6 8 9 9 10 11 13 15 15 15 16 16 15 14 15 16
8 3 6 5 3 2 6 6 2 3 2 9 6 6 1 4 7 9 10 9 9 7 8 7 7 6 5 5 6 7 8 9 10 11 13 14 15 14 16 16 14 14 15 12
9 5 11 11 7 4 6 8 10 9 6 7 13 13 9 5 9 9 9 10 9 7 8 7 7 6 5 5 5 6 8 8 10 10 12 13 15 15 15 15 15 12 9 9
6 7 11 17 18 15 17 20 16 18 21 12 11 10 16 11 12 11 11 10 8 7 8 8 7 6 4 5 4 5 6 7 9 10 11 13 15 15 15 15 14 11 12 11
6 5 2 7 16 18 21 24 20 23 21 24 23 29 21 20 13 12 11 6 8 8 7 7 7 7 6 3 4 4 6 7 8 9 10 12 14 15 16 15 14 14 16 12
7 5 3 8 2 13 18 20 17 13 8 16 17 14 12 12 8 9 8 8 11 9 6 8 9 7 5 3 2 4 5 6 7 8 9 12 13 15 18 19 21 18 14 13
6 5 4 9 8 8 3 7 7 16 9 18 15 13 11 11 12 15 14 13 10 7 7 7 8 7 6 4 3 3 4 6 6 8 9 10 11 13 15 16 14 15 12 13
5 7 4 6 5 13 14 3 3 5 3 19 15 14 8 6 5 8 2 7 8 5 5 5 7 7 6 5 2 3 4 5 7 9 10 10 11 11 13 14 16 13 10 10
4 1 8 3 6 6 5 2 0 2 8 2 12 2 3 1 6 5 6 3 6 6 5 6 8 7 7 6 4 3 3 5 8 9 10 9 9 9 11 11 12 14 14 14
3 5 14 13 8 9 8 3 3 5 3 6 8 2 5 5 7 10 6 8 6 7 6 6 9 9 8 6 5 5 2 4 6 8 9 10 10 9 9 11 10 10 8 8
5 5 5 5 7 9 3 3 4 5 7 6 6 9 11 12 12 8 12 11 10 10 8 8 9 8 8 7 6 5 3 2 3 6 8 9 11 9 8 10 10 10 10 9
3 5 6 7 8 12 3 4 3 3 6 10 7 4 4 7 11 10 9 10 9 9 6 7 9 8 8 9 8 6 3 1 2 5 7 8 9 9 10 11 10 10 11 11
6 2 5 9 4 16 15 14 11 8 13 11 8 8 6 8 10 10 8 8 8 6 6 6 7 9 9 9 8 7 5 3 1 4 5 6 8 9 9 7 9 10 10 10
6 6 10 17 18 17 14 9 10 14 8 8 9 9 9 8 10 9 7 8 8 7 5 5 7 7 7 7 8 6 5 5 2 2 4 5 5 7 7 7 9 9 11 12
2 6 7 14 25 19 20 12 15 10 11 13 13 12 8 7 9 7 9 7 7 6 4 5 5 4 5 5 6 7 5 5 3 1 2 3 3 4 4 5 5 12 14 18
Wind_Direction
90 199 34 66 52 69 91 97 310 105 102 300 277 269 249 232 232 240 234 236 243 251 260 236 286 336 335 332 322 314 310 313 316 311 313 314 308 302 296 292 288 284 279 277
159 79 110 108 99 110 81 197 213 161 105 300 293 280 273 252 228 220 227 233 245 250 245 233 257 310 333 325 308 307 308 311 314 312 317 310 306 298 294 288 281 280 276 271
30 85 139 65 66 342 40 340 0 322 315 236 304 259 194 155 197 218 221 234 253 254 272 272 251 307 327 308 306 302 304 308 308 312 310 306 296 289 287 286 285 284 284 281
63 130 145 80 54 334 267 66 62 336 330 285 359 289 162 128 173 202 203 218 245 257 263 268 266 295 302 292 293 297 303 307 311 312 307 303 294 290 288 287 285 283 277 274
76 167 161 110 41 346 64 28 28 72 348 317 162 240 242 150 191 193 212 218 232 268 273 260 253 278 285 281 291 301 299 306 305 304 304 296 286 283 285 282 282 276 276 272
74 57 21 53 71 56 131 195 89 109 174 239 93 268 229 179 188 160 180 221 236 275 254 255 266 275 271 282 302 307 314 304 308 305 300 291 287 285 281 278 278 275 276 274
143 63 70 8 187 124 202 252 267 225 194 281 138 220 276 254 199 139 165 222 247 270 268 263 271 273 281 302 311 312 309 301 308 302 294 291 288 285 281 279 273 272 270 264
341 201 1 2 8 12 75 326 294 284 282 17 156 232 233 227 288 258 262 263 282 275 258 251 266 275 278 290 305 307 303 303 305 300 295 295 291 284 279 273 270 267 265 263
315 183 131 32 72 329 132 206 34 73 121 258 258 260 261 232 240 226 256 247 258 270 277 261 275 266 276 285 296 294 297 298 296 298 297 297 297 291 282 278 271 267 263 261
133 276 193 146 149 64 302 94 174 191 266 257 220 266 250 176 205 203 220 234 259 286 279 265 266 272 270 286 291 293 292 293 298 303 298 298 298 294 287 279 271 265 264 262
158 241 122 166 202 173 150 202 70 320 270 278 300 261 194 192 172 186 207 218 275 282 280 277 274 269 278 285 288 293 296 304 303 304 302 302 299 303 293 284 277 272 269 261
174 186 260 252 69 11 335 278 216 243 171 171 315 271 156 228 221 235 246 262 282 268 276 277 274 274 279 284 298 295 303 304 304 305 304 305 304 308 298 296 290 283 271 261
175 205 290 195 162 167 234 188 204 48 358 212 238 247 135 244 251 241 251 269 290 278 272 262 255 256 263 280 291 296 303 306 310 311 310 311 313 316 310 308 306 298 280 261
182 226 232 265 326 110 201 197 200 204 222 236 232 267 238 222 243 239 253 281 285 273 257 252 248 247 250 263 278 293 307 316 319 315 315 315 320 322 320 318 314 304 307 322
215 248 241 254 270 259 258 257 197 206 224 234 266 241 270 275 284 278 298 288 279 265 237 228 238 251 238 258 274 295 304 323 326 319 323 323 321 326 329 328 322 338 354 358
201 268 276 270 259 256 266 261 249 221 238 244 255 275 281 290 269 264 265 258 275 265 245 226 228 246 255 234 282 299 313 326 329 317 330 328 329 333 334 341 333 358 8 359
193 229 253 272 332 292 271 258 241 212 202 224 230 242 258 286 289 285 283 260 275 269 242 221 221 233 249 249 259 300 313 317 326 329 328 338 338 339 343 348 354 1 353 1
199 196 230 291 302 244 65 302 258 216 213 209 242 256 261 284 290 282 264 260 269 245 229 215 212 219 231 223 228 280 311 326 330 336 341 341 342 348 346 348 352 347 1 355
230 208 245 260 239 312 297 95 138 187 251 218 227 257 272 301 299 278 277 236 251 216 211 209 203 208 221 224 208 283 326 341 348 351 348 344 339 349 352 348 346 351 357 356
112 263 225 184 257 261 36 86 330 229 263 67 179 208 240 280 287 301 6 287 256 236 230 203 193 195 219 222 211 246 329 342 357 352 345 354 349 344 354 355 6 349 354 1
192 215 225 235 261 276 289 240 166 243 50 118 163 235 250 255 250 300 321 291 261 254 239 215 197 202 214 209 213 247 291 358 350 342 346 353 1 354 357 352 8 12 357 355
223 205 207 211 236 271 73 55 248 355 354 46 319 275 283 282 271 281 296 302 281 253 242 217 208 208 203 198 208 239 266 76 359 347 351 356 358 1 359 359 1 7 13 19
267 239 305 222 267 312 284 271 266 267 289 301 285 315 295 284 285 282 288 301 296 265 245 222 216 211 201 201 207 221 226 154 29 9 359 356 357 7 359 6 7 15 18 16
311 269 260 312 277 289 300 294 272 265 264 271 239 258 266 268 271 271 284 295 295 265 257 227 219 220 212 202 204 220 173 168 38 20 15 1 0 3 10 9 17 19 21 26
341 317 296 279 287 300 278 292 291 299 244 259 260 242 254 252 263 258 280 274 278 272 244 234 232 229 228 197 203 196 190 176 162 33 17 13 15 2 7 23 15 25 22 32
209 297 313 313 308 286 283 283 294 273 268 277 279 270 266 234 257 270 272 266 270 266 245 234 234 227 227 207 198 186 183 182 166 124 41 20 14 17 16 13 36 43 38 33